"startDT [UTC]","vpos","CH4 [ppm]","stdev(CH4) [ppm]","CO2 [ppm]","stdev(CO2) [ppm]","H2O [ppm]","stdev(H2O)","p_LGR [torr]","T_LGR [C]","mt1_LGR [us]","mt2_LGR [us]","T_ECpre [C]","T_EC1 [C]","T_EC2 [C]","p_inlet [hPa]","p_in [hPa]","p_out [hPa]","T_inlet [C]","RH_inlet [%]","dwpt_inlet [C]","T_vent [C]","RH_vent [%]","dwpt_vent [C]","flow_vent [l min-1]","flow_inlet [l min-1]","dwpt_sample [C]","T_room [C]"
2012-12-18 00:00:00,0.0,1.9198,0.0011,-1.00,0.00,109.6,48.6,138.17,24.83,24.61,36.45,0.04,-272.75,-272.75,-36,548,-892,19.9,4.2,-22.9,19.9,4.3,-22.6,5.73,2.25,-26.1,25.1
2012-12-18 00:01:00,0.0,1.9193,0.0009,-1.00,0.00,109.6,47.4,138.17,24.84,24.61,36.45,0.04,-272.75,-272.75,-36,548,-892,19.9,4.2,-22.9,19.9,4.3,-22.6,5.73,2.39,-26.1,25.0
2012-12-18 00:02:00,0.0,1.9195,0.0010,-1.00,0.00,103.2,42.3,138.17,24.85,24.61,36.45,0.04,-272.75,-272.75,-35,548,-892,19.9,4.2,-22.9,19.9,4.3,-22.6,5.73,2.27,-26.1,25.1
2012-12-18 00:03:00,0.0,1.9190,0.0009,-1.00,0.00,104.4,40.6,138.18,24.86,24.61,36.45,0.04,-272.75,-272.75,-36,548,-892,19.9,4.2,-22.9,19.9,4.3,-22.7,5.73,2.35,-26.1,25.1
2012-12-18 00:04:00,0.0,1.9192,0.0012,-1.00,0.00,99.1,43.7,138.17,24.87,24.62,36.45,0.04,-272.75,-272.75,-36,549,-892,19.9,4.1,-23.0,19.9,4.3,-22.7,5.73,2.33,-26.1,25.1
2012-12-18 00:05:00,0.0,1.9192,0.0010,-1.00,0.00,105.4,47.0,138.17,24.88,24.62,36.45,0.04,-272.74,-272.75,-36,549,-892,19.9,4.1,-23.0,19.9,4.3,-22.7,5.73,2.28,-26.1,25.1
2012-12-18 00:06:00,0.0,1.9192,0.0012,-1.00,0.00,89.9,45.3,138.17,24.88,24.62,36.45,0.04,-272.74,-272.75,-36,549,-892,19.9,4.1,-23.0,19.9,4.3,-22.7,5.73,2.38,-26.1,25.1
2012-12-18 00:07:00,0.0,1.9192,0.0009,-1.00,0.00,102.8,43.3,138.17,24.89,24.61,36.45,0.04,-272.75,-272.75,-36,549,-892,19.9,4.2,-22.9,19.9,4.3,-22.6,5.73,2.25,-26.1,25.1
2012-12-18 00:08:00,0.0,1.9191,0.0010,-1.00,0.00,98.0,48.7,138.17,24.90,24.62,36.45,0.04,-272.75,-272.75,-37,549,-892,20.0,4.2,-22.9,19.9,4.3,-22.6,5.73,2.39,-26.1,25.1
2012-12-18 00:09:00,0.0,1.9191,0.0010,-1.00,0.00,100.7,39.9,138.17,24.91,24.62,36.45,0.04,-272.74,-272.75,-37,549,-892,20.0,4.2,-22.8,19.9,4.3,-22.5,5.73,2.27,-26.1,25.1
2012-12-18 00:10:00,0.0,1.9192,0.0011,-1.00,0.00,88.6,41.8,138.17,24.92,24.62,36.45,0.04,-272.75,-272.76,-36,549,-892,20.0,4.2,-22.8,19.9,4.3,-22.5,5.73,2.35,-26.1,25.2
2012-12-18 00:11:00,0.0,1.9192,0.0010,-1.00,0.00,102.3,41.8,138.17,24.92,24.61,36.46,0.04,-272.75,-272.75,-37,549,-892,20.0,4.2,-22.8,20.0,4.3,-22.5,5.73,2.32,-26.1,25.1
2012-12-18 00:12:00,0.0,1.9194,0.0009,-1.00,0.00,101.2,41.8,138.17,24.92,24.61,36.46,0.04,-272.75,-272.75,-37,549,-892,20.0,4.2,-22.8,20.0,4.3,-22.4,5.73,2.29,-26.1,25.2
2012-12-18 00:13:00,0.0,1.9195,0.0010,-1.00,0.00,99.5,41.0,138.17,24.91,24.62,36.45,0.04,-272.75,-272.75,-36,549,-892,20.0,4.2,-22.8,20.0,4.3,-22.5,5.73,2.38,-26.1,25.2
2012-12-18 00:14:00,0.0,1.9200,0.0013,-1.00,0.00,103.3,43.5,138.17,24.91,24.61,36.45,0.04,-272.75,-272.75,-36,549,-892,20.0,4.2,-22.8,20.0,4.3,-22.5,5.73,2.26,-26.1,25.2
2012-12-18 00:15:00,0.0,1.9196,0.0011,-1.00,0.00,102.7,37.9,138.17,24.91,24.62,36.46,0.04,-272.74,-272.75,-36,549,-892,20.0,4.2,-22.7,20.0,4.3,-22.5,5.73,2.39,-26.1,25.2
2012-12-18 00:16:00,0.0,1.9205,0.0011,-1.00,0.00,100.2,36.0,138.17,24.91,24.61,36.45,0.04,-272.75,-272.75,-36,549,-892,20.0,4.2,-22.8,20.0,4.3,-22.4,5.73,2.26,-26.1,25.2
2012-12-18 00:17:00,0.0,1.9197,0.0012,-1.00,0.00,95.1,40.3,138.17,24.91,24.62,36.45,0.04,-272.75,-272.75,-37,549,-892,20.0,4.2,-22.8,20.0,4.3,-22.5,5.73,2.36,-26.1,25.2
2012-12-18 00:18:00,0.0,1.9191,0.0011,-1.00,0.00,96.8,43.5,138.17,24.92,24.61,36.46,0.04,-272.75,-272.75,-36,549,-892,20.1,4.2,-22.7,20.0,4.3,-22.4,5.73,2.31,-26.1,25.3
2012-12-18 00:19:00,0.0,1.9191,0.0011,-1.00,0.00,109.0,45.0,138.17,24.93,24.62,36.45,0.04,-272.75,-272.75,-37,549,-892,20.1,4.2,-22.7,20.1,4.3,-22.4,5.73,2.30,-26.1,25.3
2012-12-18 00:20:00,0.0,1.9191,0.0010,-1.00,0.00,92.6,38.6,138.17,24.95,24.61,36.45,0.04,-272.75,-272.75,-36,549,-892,20.1,4.2,-22.7,20.1,4.3,-22.4,5.73,2.36,-26.1,25.3
2012-12-18 00:21:00,0.0,1.9188,0.0009,-1.00,0.00,99.6,41.7,138.17,24.96,24.61,36.45,0.04,-272.74,-272.75,-36,549,-892,20.1,4.2,-22.8,20.1,4.3,-22.5,5.73,2.26,-26.1,25.3
2012-12-18 00:22:00,0.0,1.9190,0.0009,-1.00,0.00,91.9,37.6,138.17,24.97,24.61,36.46,0.04,-272.74,-272.75,-37,549,-892,20.1,4.2,-22.8,20.1,4.3,-22.5,5.73,2.39,-26.1,25.3
2012-12-18 00:23:00,0.0,1.9190,0.0010,-1.00,0.00,98.3,37.0,138.17,24.99,24.62,36.46,0.04,-272.75,-272.75,-36,550,-892,20.1,4.2,-22.8,20.1,4.3,-22.5,5.73,2.24,-26.1,25.3
2012-12-18 00:24:00,0.0,1.9192,0.0011,-1.00,0.00,90.5,53.4,138.17,25.00,24.62,36.45,0.04,-272.75,-272.75,-36,550,-892,20.1,4.2,-22.8,20.1,4.3,-22.5,5.73,2.38,-26.1,25.3
2012-12-18 00:25:00,0.0,1.9195,0.0011,-1.00,0.00,95.6,45.8,138.17,25.01,24.61,36.46,0.04,-272.74,-272.74,-36,550,-892,20.1,4.2,-22.8,20.1,4.3,-22.5,5.73,2.27,-26.1,25.3
2012-12-18 00:26:00,0.0,1.9194,0.0011,-1.00,0.00,87.6,41.7,138.17,25.02,24.61,36.45,0.04,-272.75,-272.75,-36,550,-892,20.1,4.1,-22.8,20.1,4.3,-22.5,5.73,2.35,-26.0,25.3
2012-12-18 00:27:00,0.0,1.9192,0.0009,-1.00,0.00,92.5,39.7,138.17,25.03,24.62,36.45,0.04,-272.75,-272.75,-37,550,-892,20.1,4.1,-22.9,20.1,4.3,-22.5,5.73,2.32,-26.1,25.3
2012-12-18 00:28:00,0.0,1.9200,0.0010,-1.00,0.00,90.6,43.8,138.17,25.04,24.61,36.45,0.04,-272.75,-272.75,-36,550,-892,20.2,4.1,-22.9,20.1,4.2,-22.6,5.73,2.29,-26.1,25.3
2012-12-18 00:29:00,0.0,1.9193,0.0010,-1.00,0.00,86.9,38.3,138.17,25.05,24.62,36.45,0.04,-272.75,-272.75,-36,550,-892,20.2,4.1,-22.9,20.1,4.2,-22.5,5.73,2.37,-26.1,25.4
2012-12-18 00:30:00,0.0,1.9199,0.0009,-1.00,0.00,82.5,37.8,138.17,25.05,24.61,36.46,0.04,-272.75,-272.75,-36,550,-891,20.2,4.1,-22.9,20.2,4.2,-22.5,5.73,2.26,-26.0,25.4
2012-12-18 00:31:00,0.0,1.9197,0.0010,-1.00,0.00,103.9,46.1,138.17,25.06,24.61,36.45,0.04,-272.75,-272.75,-36,550,-892,20.2,4.1,-22.9,20.2,4.3,-22.5,5.73,2.39,-26.1,25.4
2012-12-18 00:32:00,0.0,1.9189,0.0010,-1.00,0.00,103.8,46.2,138.17,25.05,24.62,36.46,0.04,-272.74,-272.74,-37,550,-891,20.2,4.1,-22.9,20.2,4.3,-22.5,5.73,2.25,-26.1,25.4
2012-12-18 00:33:00,0.0,1.9194,0.0010,-1.00,0.00,96.2,40.8,138.17,25.05,24.61,36.45,0.04,-272.75,-272.75,-37,550,-891,20.2,4.1,-22.9,20.2,4.2,-22.5,5.73,2.38,-26.0,25.4
2012-12-18 00:34:00,0.0,1.9185,0.0010,-1.00,0.00,102.5,39.3,138.17,25.04,24.62,36.46,0.04,-272.75,-272.75,-36,550,-892,20.2,4.1,-22.9,20.2,4.2,-22.5,5.73,2.27,-26.1,25.4
2012-12-18 00:35:00,0.0,1.9191,0.0008,-1.00,0.00,99.3,50.9,138.16,25.04,24.62,36.46,0.04,-272.74,-272.75,-37,550,-891,20.2,4.1,-22.8,20.2,4.2,-22.5,5.73,2.35,-26.0,25.4
2012-12-18 00:36:00,0.0,1.9192,0.0009,-1.00,0.00,95.1,35.2,138.15,25.03,24.61,36.45,0.04,-272.75,-272.75,-37,550,-891,20.3,4.1,-22.8,20.2,4.3,-22.5,5.73,2.30,-26.0,25.4
2012-12-18 00:37:00,0.0,1.9187,0.0010,-1.00,0.00,110.3,41.4,138.16,25.03,24.62,36.46,0.04,-272.75,-272.75,-37,550,-892,20.3,4.1,-22.8,20.2,4.2,-22.5,5.73,2.31,-26.0,25.4
2012-12-18 00:38:00,0.0,1.9192,0.0011,-1.00,0.00,99.0,37.2,138.16,25.03,24.62,36.46,0.04,-272.75,-272.75,-37,550,-892,20.3,4.1,-22.8,20.3,4.2,-22.5,5.73,2.35,-26.0,25.4
2012-12-18 00:39:00,0.0,1.9189,0.0011,-1.00,0.00,101.1,43.3,138.15,25.03,24.62,36.46,0.04,-272.75,-272.74,-37,550,-891,20.3,4.1,-22.7,20.3,4.3,-22.4,5.73,2.26,-26.0,25.4
2012-12-18 00:40:00,0.0,1.9189,0.0008,-1.00,0.00,104.0,44.4,138.16,25.03,24.61,36.46,0.04,-272.75,-272.75,-37,550,-892,20.3,4.2,-22.7,20.3,4.3,-22.4,5.73,2.38,-26.0,25.4
2012-12-18 00:41:00,0.0,1.9187,0.0011,-1.00,0.00,107.0,31.6,138.16,25.04,24.62,36.46,0.04,-272.75,-272.75,-36,550,-892,20.3,4.2,-22.7,20.3,4.3,-22.4,5.73,2.25,-26.0,25.4
2012-12-18 00:42:00,0.0,1.9181,0.0010,-1.00,0.00,101.4,29.8,138.16,25.05,24.62,36.45,0.04,-272.74,-272.75,-37,550,-891,20.3,4.2,-22.6,20.3,4.3,-22.3,5.73,2.39,-26.0,25.5
2012-12-18 00:43:00,0.0,1.9175,0.0011,-1.00,0.00,99.5,38.9,138.16,25.06,24.62,36.46,0.04,-272.75,-272.75,-36,550,-892,20.3,4.2,-22.7,20.3,4.3,-22.4,5.73,2.26,-26.0,25.4
2012-12-18 00:44:00,0.0,1.9182,0.0012,-1.00,0.00,95.9,39.9,138.16,25.08,24.61,36.46,0.04,-272.75,-272.75,-36,551,-892,20.3,4.2,-22.6,20.3,4.3,-22.3,5.73,2.35,-26.0,25.4
2012-12-18 00:45:00,0.0,1.9177,0.0008,-1.00,0.00,103.9,41.4,138.16,25.09,24.62,36.46,0.04,-272.74,-272.75,-36,550,-892,20.3,4.2,-22.7,20.3,4.3,-22.4,5.73,2.31,-26.0,25.5
2012-12-18 00:46:00,0.0,1.9186,0.0012,-1.00,0.00,94.2,45.1,138.16,25.11,24.61,36.45,0.04,-272.74,-272.75,-36,551,-892,20.3,4.1,-22.7,20.3,4.3,-22.4,5.73,2.29,-26.0,25.5
2012-12-18 00:47:00,0.0,1.9184,0.0009,-1.00,0.00,77.8,37.6,138.16,25.12,24.61,36.45,0.04,-272.75,-272.75,-36,551,-892,20.3,4.2,-22.6,20.3,4.3,-22.3,5.73,2.38,-26.0,25.5
2012-12-18 00:48:00,0.0,1.9184,0.0011,-1.00,0.00,97.9,47.5,138.16,25.14,24.62,36.46,0.04,-272.74,-272.75,-37,551,-892,20.4,4.2,-22.6,20.3,4.3,-22.4,5.73,2.25,-26.0,25.5
2012-12-18 00:49:00,0.0,1.9187,0.0012,-1.00,0.00,77.9,39.7,138.16,25.15,24.62,36.45,0.04,-272.75,-272.75,-36,551,-893,20.4,4.1,-22.7,20.3,4.2,-22.4,5.73,2.39,-26.0,25.5
2012-12-18 00:50:00,0.0,1.9186,0.0012,-1.00,0.00,91.6,41.7,138.16,25.17,24.62,36.45,0.04,-272.75,-272.75,-36,551,-893,20.4,4.1,-22.8,20.3,4.2,-22.5,5.73,2.26,-26.0,25.5
2012-12-18 00:51:00,0.0,1.9188,0.0010,-1.00,0.00,95.4,47.7,138.16,25.18,24.62,36.46,0.04,-272.75,-272.75,-36,551,-893,20.4,4.1,-22.8,20.3,4.2,-22.5,5.73,2.37,-26.0,25.5
2012-12-18 00:52:00,0.0,1.9185,0.0011,-1.00,0.00,83.9,42.9,138.16,25.19,24.62,36.46,0.04,-272.75,-272.74,-36,551,-893,20.4,4.1,-22.7,20.3,4.2,-22.5,5.73,2.31,-26.0,25.5
2012-12-18 00:53:00,0.0,1.9185,0.0009,-1.00,0.00,86.1,41.1,138.16,25.20,24.62,36.45,0.04,-272.75,-272.75,-36,551,-893,20.4,4.1,-22.8,20.4,4.2,-22.5,5.73,2.31,-26.0,25.5
2012-12-18 00:54:00,0.0,1.9189,0.0010,-1.00,0.00,89.5,39.4,138.16,25.21,24.62,36.46,0.04,-272.75,-272.75,-36,551,-893,20.4,4.1,-22.8,20.4,4.2,-22.5,5.73,2.37,-26.0,25.5
2012-12-18 00:55:00,0.0,1.9189,0.0010,-1.00,0.00,89.8,38.0,138.16,25.22,24.62,36.46,0.04,-272.74,-272.75,-36,551,-893,20.4,4.1,-22.7,20.4,4.2,-22.5,5.73,2.26,-26.0,25.6
2012-12-18 00:56:00,0.0,1.9187,0.0010,-1.00,0.00,82.6,41.1,138.15,25.22,24.62,36.46,0.04,-272.75,-272.75,-36,551,-893,20.4,4.1,-22.7,20.4,4.2,-22.5,5.73,2.40,-26.0,25.6
2012-12-18 00:57:00,0.0,1.9187,0.0010,-1.00,0.00,78.0,36.9,138.15,25.23,24.62,36.46,0.04,-272.75,-272.75,-36,551,-893,20.4,4.1,-22.8,20.4,4.2,-22.5,5.73,2.27,-26.0,25.5
2012-12-18 00:58:00,0.0,1.9186,0.0012,-1.00,0.00,79.0,35.9,138.15,25.24,24.62,36.46,0.04,-272.75,-272.74,-36,551,-893,20.4,4.1,-22.7,20.4,4.2,-22.4,5.73,2.36,-26.0,25.6
2012-12-18 00:59:00,0.0,1.9185,0.0008,-1.00,0.00,86.4,36.7,138.15,25.25,24.62,36.46,0.04,-272.74,-272.75,-36,551,-893,20.4,4.2,-22.6,20.4,4.3,-22.3,5.73,2.32,-26.0,25.5
2012-12-18 01:00:00,0.0,1.9188,0.0010,-1.00,0.00,80.8,42.3,138.15,25.26,24.62,36.45,0.04,-272.75,-272.75,-36,551,-893,20.4,4.2,-22.6,20.4,4.3,-22.3,5.73,2.30,-26.0,25.6
2012-12-18 01:01:00,0.0,1.9188,0.0009,-1.00,0.00,83.7,39.1,138.15,25.27,24.62,36.46,0.04,-272.75,-272.75,-36,551,-893,20.4,4.1,-22.6,20.4,4.3,-22.3,5.73,2.37,-26.0,25.6
2012-12-18 01:02:00,0.0,1.9191,0.0008,-1.00,0.00,93.7,37.3,138.15,25.28,24.62,36.46,0.04,-272.74,-272.75,-36,551,-893,20.5,4.1,-22.6,20.4,4.3,-22.3,5.73,2.26,-26.0,25.6
2012-12-18 01:03:00,0.0,1.9191,0.0010,-1.00,0.00,82.4,42.3,138.15,25.29,24.61,36.45,0.04,-272.75,-272.75,-36,551,-893,20.4,4.1,-22.7,20.4,4.2,-22.4,5.73,2.40,-26.0,25.6
2012-12-18 01:04:00,0.0,1.9191,0.0010,-1.00,0.00,89.8,41.0,138.15,25.29,24.62,36.46,0.04,-272.75,-272.75,-36,551,-893,20.4,4.1,-22.8,20.4,4.2,-22.5,5.73,2.26,-26.0,25.6
2012-12-18 01:05:00,0.0,1.9195,0.0010,-1.00,0.00,81.3,39.3,138.15,25.30,24.61,36.46,0.04,-272.75,-272.74,-36,551,-893,20.5,4.1,-22.8,20.4,4.2,-22.5,5.73,2.37,-26.0,25.6
2012-12-18 01:06:00,0.0,1.9196,0.0011,-1.00,0.00,81.9,36.5,138.15,25.31,24.61,36.46,0.04,-272.75,-272.75,-36,551,-893,20.5,4.0,-22.9,20.5,4.2,-22.6,5.73,2.30,-26.0,25.6
2012-12-18 01:07:00,0.0,1.9195,0.0010,-1.00,0.00,92.1,39.5,138.15,25.31,24.62,36.45,0.04,-272.75,-272.75,-36,551,-893,20.5,4.0,-22.9,20.5,4.1,-22.6,5.73,2.32,-26.0,25.6
2012-12-18 01:08:00,0.0,1.9196,0.0010,-1.00,0.00,88.4,39.3,138.15,25.32,24.61,36.46,0.04,-272.74,-272.75,-36,551,-893,20.5,4.0,-23.0,20.5,4.1,-22.7,5.73,2.36,-26.0,25.6
2012-12-18 01:09:00,0.0,1.9192,0.0012,-1.00,0.00,94.3,43.7,138.15,25.33,24.62,36.46,0.04,-272.74,-272.74,-36,551,-893,20.5,4.0,-23.0,20.5,4.1,-22.7,5.73,2.26,-26.0,25.6
2012-12-18 01:10:00,0.0,1.9193,0.0011,-1.00,0.00,79.3,41.3,138.15,25.34,24.62,36.46,0.04,-272.75,-272.75,-36,551,-893,20.5,4.0,-23.0,20.5,4.1,-22.7,5.73,2.39,-26.0,25.6
2012-12-18 01:11:00,0.0,1.9193,0.0009,-1.00,0.00,93.5,40.0,138.15,25.35,24.62,36.46,0.04,-272.75,-272.75,-36,551,-893,20.5,4.0,-23.0,20.5,4.1,-22.7,5.73,2.26,-26.0,25.6
2012-12-18 01:12:00,0.0,1.9191,0.0009,-1.00,0.00,96.8,43.7,138.15,25.36,24.62,36.46,0.04,-272.75,-272.75,-37,551,-893,20.5,4.0,-23.0,20.5,4.1,-22.8,5.73,2.38,-26.0,25.7
2012-12-18 01:13:00,0.0,1.9195,0.0010,-1.00,0.00,93.9,40.3,138.15,25.37,24.62,36.45,0.04,-272.75,-272.75,-36,551,-893,20.5,4.0,-23.0,20.5,4.1,-22.8,5.73,2.28,-26.0,25.7
2012-12-18 01:14:00,0.0,1.9194,0.0011,-1.00,0.00,97.6,34.5,138.15,25.37,24.62,36.46,0.04,-272.74,-272.75,-36,551,-893,20.5,4.0,-23.0,20.5,4.1,-22.7,5.73,2.34,-26.0,25.7
2012-12-18 01:15:00,0.0,1.9195,0.0010,-1.00,0.00,95.0,39.5,138.15,25.38,24.62,36.46,0.04,-272.75,-272.75,-36,551,-893,20.5,4.0,-23.0,20.5,4.1,-22.8,5.73,2.34,-26.0,25.7
2012-12-18 01:16:00,0.0,1.9197,0.0010,-1.00,0.00,98.0,38.7,138.15,25.39,24.61,36.46,0.04,-272.75,-272.75,-36,552,-893,20.6,4.0,-23.1,20.5,4.1,-22.8,5.73,2.28,-26.0,25.7
2012-12-18 01:17:00,0.0,1.9198,0.0009,-1.00,0.00,90.5,40.8,138.15,25.40,24.62,36.46,0.04,-272.75,-272.75,-36,551,-894,20.6,3.9,-23.1,20.5,4.0,-22.9,5.73,2.38,-26.0,25.7
2012-12-18 01:18:00,0.0,1.9200,0.0009,-1.00,0.00,92.9,30.4,138.15,25.41,24.62,36.46,0.04,-272.75,-272.75,-36,552,-893,20.6,3.9,-23.2,20.6,4.0,-22.9,5.73,2.25,-26.0,25.7
2012-12-18 01:19:00,0.0,1.9196,0.0010,-1.00,0.00,93.6,39.6,138.15,25.41,24.62,36.45,0.04,-272.75,-272.75,-36,552,-894,20.6,3.9,-23.3,20.6,4.0,-23.0,5.73,2.39,-26.0,25.7
2012-12-18 01:20:00,0.0,1.9198,0.0010,-1.00,0.00,83.8,35.8,138.15,25.42,24.62,36.45,0.04,-272.75,-272.75,-36,552,-893,20.6,3.8,-23.4,20.6,3.9,-23.1,5.73,2.26,-25.9,25.7
2012-12-18 01:21:00,0.0,1.9198,0.0010,-1.00,0.00,94.9,37.0,138.15,25.43,24.62,36.46,0.04,-272.75,-272.75,-36,552,-893,20.6,3.8,-23.5,20.6,3.9,-23.1,5.73,2.37,-26.0,25.7
2012-12-18 01:22:00,0.0,1.9191,0.0012,-1.00,0.00,87.8,39.6,138.15,25.44,24.62,36.45,0.04,-272.75,-272.75,-36,552,-893,20.6,3.8,-23.4,20.6,3.9,-23.2,5.73,2.30,-26.0,25.8
2012-12-18 01:23:00,0.0,1.9194,0.0011,-1.00,0.00,92.7,40.7,138.15,25.44,24.62,36.46,0.04,-272.75,-272.75,-36,552,-894,20.6,3.8,-23.4,20.6,3.9,-23.2,5.73,2.32,-25.9,25.7
2012-12-18 01:24:00,0.0,1.9195,0.0010,-1.00,0.00,95.9,39.7,138.15,25.45,24.62,36.46,0.04,-272.75,-272.75,-36,552,-893,20.6,3.8,-23.5,20.6,3.9,-23.2,5.73,2.35,-25.9,25.7
2012-12-18 01:25:00,0.0,1.9194,0.0010,-1.00,0.00,92.5,43.2,138.15,25.46,24.62,36.45,0.04,-272.75,-272.75,-37,552,-894,20.7,3.8,-23.4,20.6,3.9,-23.2,5.73,2.28,-26.0,25.7
2012-12-18 01:26:00,0.0,1.9197,0.0008,-1.00,0.00,89.0,36.3,138.15,25.47,24.62,36.45,0.04,-272.74,-272.74,-36,552,-893,20.7,3.8,-23.3,20.6,3.9,-23.1,5.73,2.39,-25.9,25.8
2012-12-18 01:27:00,0.0,1.9194,0.0008,-1.00,0.00,97.0,35.1,138.15,25.47,24.62,36.46,0.04,-272.74,-272.75,-37,552,-894,20.7,3.9,-23.3,20.6,3.9,-23.0,5.73,2.25,-25.9,25.8
2012-12-18 01:28:00,0.0,1.9194,0.0010,-1.00,0.00,91.5,41.7,138.15,25.48,24.62,36.46,0.04,-272.75,-272.75,-37,552,-894,20.7,3.9,-23.2,20.6,4.0,-22.9,5.73,2.39,-25.9,25.8
2012-12-18 01:29:00,0.0,1.9194,0.0010,-1.00,0.00,102.5,44.3,138.15,25.49,24.62,36.46,0.04,-272.74,-272.75,-36,552,-894,20.7,3.9,-23.2,20.7,4.0,-22.9,5.73,2.26,-25.9,25.8
2012-12-18 01:30:00,0.0,1.9197,0.0012,-1.00,0.00,96.0,39.2,138.15,25.50,24.62,36.46,0.04,-272.75,-272.75,-37,552,-894,20.7,3.9,-23.1,20.7,4.0,-22.9,5.73,2.36,-25.9,25.8
2012-12-18 01:31:00,0.0,1.9198,0.0010,-1.00,0.00,85.8,36.9,138.15,25.51,24.61,36.47,0.04,-272.75,-272.75,-37,552,-894,20.7,3.9,-23.1,20.7,4.0,-22.9,5.73,2.31,-25.9,25.8
2012-12-18 01:32:00,0.0,1.9194,0.0008,-1.00,0.00,96.0,32.8,138.15,25.52,24.62,36.46,0.04,-272.75,-272.75,-37,552,-894,20.7,3.9,-23.2,20.7,4.0,-22.9,5.73,2.31,-25.9,25.8
2012-12-18 01:33:00,0.0,1.9194,0.0009,-1.00,0.00,105.1,38.3,138.15,25.52,24.62,36.46,0.04,-272.75,-272.74,-37,552,-894,20.7,3.9,-23.2,20.7,4.0,-22.9,5.73,2.36,-25.9,25.8
2012-12-18 01:34:00,0.0,1.9197,0.0010,-1.00,0.00,88.5,40.7,138.15,25.53,24.62,36.46,0.04,-272.75,-272.75,-36,552,-894,20.7,3.9,-23.2,20.7,4.0,-22.9,5.73,2.27,-25.9,25.9
2012-12-18 01:35:00,0.0,1.9201,0.0011,-1.00,0.00,95.2,39.3,138.15,25.54,24.61,36.46,0.04,-272.75,-272.75,-37,552,-894,20.7,3.9,-23.2,20.7,4.0,-22.9,5.73,2.39,-25.9,25.8
2012-12-18 01:36:00,0.0,1.9195,0.0009,-1.00,0.00,98.6,33.8,138.15,25.55,24.62,36.46,0.04,-272.74,-272.75,-36,552,-894,20.7,3.9,-23.2,20.7,4.0,-22.9,5.73,2.25,-25.9,25.8
2012-12-18 01:37:00,0.0,1.9198,0.0008,-1.00,0.00,98.3,35.9,138.15,25.56,24.62,36.46,0.04,-272.75,-272.75,-36,552,-894,20.7,3.8,-23.3,20.7,3.9,-23.0,5.73,2.39,-25.9,25.9
2012-12-18 01:38:00,0.0,1.9192,0.0008,-1.00,0.00,102.9,43.3,138.15,25.57,24.62,36.46,0.04,-272.75,-272.75,-37,552,-894,20.8,3.8,-23.4,20.7,3.9,-23.1,5.73,2.27,-25.9,25.9
2012-12-18 01:39:00,0.0,1.9197,0.0010,-1.00,0.00,88.7,36.9,138.15,25.57,24.62,36.46,0.04,-272.74,-272.75,-36,552,-894,20.8,3.8,-23.5,20.7,3.9,-23.2,5.73,2.35,-25.9,25.9
2012-12-18 01:40:00,0.0,1.9197,0.0009,-1.00,0.00,93.0,40.4,138.15,25.58,24.62,36.46,0.04,-272.75,-272.75,-36,552,-894,20.8,3.7,-23.6,20.8,3.8,-23.3,5.73,2.33,-25.9,25.9
2012-12-18 01:41:00,0.0,1.9200,0.0011,-1.00,0.00,100.0,37.6,138.15,25.59,24.62,36.45,0.04,-272.75,-272.75,-37,552,-894,20.8,3.7,-23.6,20.8,3.8,-23.3,5.73,2.29,-25.9,25.9
2012-12-18 01:42:00,0.0,1.9196,0.0010,-1.00,0.00,102.0,33.1,138.15,25.59,24.62,36.45,0.04,-272.75,-272.75,-36,552,-894,20.8,3.7,-23.7,20.8,3.8,-23.3,5.73,2.38,-25.9,25.9
2012-12-18 01:43:00,0.0,1.9201,0.0010,-1.00,0.00,83.5,38.6,138.14,25.60,24.61,36.46,0.04,-272.74,-272.75,-37,552,-894,20.8,3.7,-23.7,20.8,3.8,-23.4,5.73,2.25,-25.9,25.9
2012-12-18 01:44:00,0.0,1.9200,0.0010,-1.00,0.00,93.4,44.8,138.14,25.61,24.62,36.46,0.04,-272.75,-272.75,-37,552,-894,20.8,3.7,-23.7,20.8,3.8,-23.4,5.73,2.40,-25.9,25.9
2012-12-18 01:45:00,0.0,1.9198,0.0010,-1.00,0.00,93.7,43.6,138.15,25.62,24.62,36.46,0.04,-272.75,-272.74,-36,552,-894,20.8,3.7,-23.7,20.8,3.8,-23.4,5.73,2.26,-25.9,25.9
2012-12-18 01:46:00,0.0,1.9199,0.0010,-1.00,0.00,90.6,38.9,138.15,25.63,24.61,36.46,0.04,-272.75,-272.75,-37,552,-894,20.8,3.7,-23.5,20.8,3.8,-23.3,5.73,2.36,-25.9,25.9
2012-12-18 01:47:00,0.0,1.9193,0.0008,-1.00,0.00,92.7,34.2,138.15,25.64,24.62,36.46,0.04,-272.75,-272.74,-36,552,-894,20.8,3.7,-23.5,20.8,3.8,-23.3,5.73,2.31,-25.9,25.9
2012-12-18 01:48:00,0.0,1.9199,0.0010,-1.00,0.00,90.7,40.8,138.15,25.64,24.62,36.47,0.04,-272.75,-272.74,-36,553,-894,20.8,3.7,-23.5,20.8,3.8,-23.3,5.73,2.31,-25.9,25.9
2012-12-18 01:49:00,0.0,1.9199,0.0009,-1.00,0.00,89.2,35.0,138.14,25.65,24.62,36.46,0.04,-272.74,-272.75,-37,552,-894,20.9,3.7,-23.5,20.8,3.8,-23.2,5.73,2.36,-25.9,25.9
2012-12-18 01:50:00,0.0,1.9194,0.0010,-1.00,0.00,88.4,38.7,138.14,25.66,24.62,36.46,0.04,-272.75,-272.75,-36,553,-894,20.9,3.8,-23.4,20.8,3.9,-23.2,5.73,2.27,-25.9,26.0
2012-12-18 01:51:00,0.0,1.9196,0.0008,-1.00,0.00,85.5,38.2,138.15,25.66,24.62,36.46,0.04,-272.75,-272.75,-37,553,-894,20.9,3.8,-23.3,20.8,3.9,-23.1,5.73,2.39,-25.9,26.0
2012-12-18 01:52:00,0.0,1.9194,0.0010,-1.00,0.00,87.1,36.3,138.14,25.67,24.62,36.46,0.04,-272.75,-272.75,-36,553,-894,20.9,3.8,-23.4,20.8,3.9,-23.1,5.73,2.25,-25.9,26.0
2012-12-18 01:53:00,0.0,1.9192,0.0009,-1.00,0.00,91.5,33.2,138.14,25.68,24.62,36.46,0.04,-272.74,-272.75,-36,553,-894,20.9,3.8,-23.3,20.8,3.9,-23.0,5.73,2.39,-25.9,26.0
2012-12-18 01:54:00,0.0,1.9193,0.0011,-1.00,0.00,91.2,40.8,138.14,25.68,24.62,36.46,0.04,-272.75,-272.75,-37,553,-894,20.9,3.8,-23.3,20.9,3.9,-23.0,5.73,2.27,-25.8,26.0
2012-12-18 01:55:00,0.0,1.9196,0.0008,-1.00,0.00,102.6,42.1,138.14,25.69,24.62,36.46,0.04,-272.75,-272.75,-36,553,-894,20.9,3.8,-23.3,20.9,3.9,-23.0,5.73,2.36,-25.9,26.0
2012-12-18 01:56:00,0.0,1.9191,0.0008,-1.00,0.00,96.1,38.5,138.14,25.70,24.62,36.46,0.04,-272.74,-272.75,-37,553,-894,20.9,3.8,-23.2,20.9,3.9,-23.0,5.73,2.30,-25.9,26.0
2012-12-18 01:57:00,0.0,1.9189,0.0008,-1.00,0.00,101.0,34.5,138.14,25.71,24.62,36.46,0.04,-272.75,-272.75,-37,553,-894,20.9,3.8,-23.2,20.9,3.9,-23.0,5.73,2.31,-25.8,26.0
2012-12-18 01:58:00,0.0,1.9186,0.0011,-1.00,0.00,82.9,41.8,138.14,25.71,24.62,36.47,0.04,-272.75,-272.75,-37,553,-894,20.9,3.8,-23.2,20.9,3.9,-22.9,5.73,2.35,-25.9,26.1
2012-12-18 01:59:00,0.0,1.9193,0.0010,-1.00,0.00,82.9,37.0,138.14,25.72,24.62,36.46,0.04,-272.75,-272.75,-37,553,-894,20.9,3.8,-23.2,20.9,3.9,-22.8,5.73,2.27,-25.9,26.1
2012-12-18 02:00:00,0.0,1.9194,0.0009,-1.00,0.00,93.3,41.8,138.14,25.73,24.62,36.46,0.04,-272.75,-272.75,-37,553,-894,20.9,3.8,-23.2,20.9,3.9,-22.9,5.73,2.39,-25.8,26.1
2012-12-18 02:01:00,0.0,1.9197,0.0009,-1.00,0.00,85.9,35.3,138.14,25.74,24.62,36.47,0.04,-272.75,-272.75,-37,553,-894,21.0,3.8,-23.3,20.9,3.9,-23.0,5.73,2.25,-25.8,26.1
2012-12-18 02:02:00,0.0,1.9199,0.0009,-1.00,0.00,103.4,37.7,138.14,25.75,24.62,36.46,0.04,-272.74,-272.75,-37,553,-895,21.0,3.8,-23.3,20.9,3.9,-23.0,5.73,2.40,-25.8,26.1
2012-12-18 02:03:00,0.0,1.9194,0.0011,-1.00,0.00,92.4,40.8,138.14,25.76,24.62,36.46,0.04,-272.74,-272.74,-37,553,-894,21.0,3.7,-23.4,20.9,3.8,-23.1,5.73,2.25,-25.8,26.1
2012-12-18 02:04:00,0.0,1.9190,0.0008,-1.00,0.00,90.4,40.3,138.14,25.77,24.62,36.46,0.04,-272.75,-272.75,-37,553,-895,21.0,3.7,-23.4,20.9,3.8,-23.1,5.73,2.37,-25.8,26.1
2012-12-18 02:05:00,0.0,1.9188,0.0009,-1.00,0.00,92.7,35.9,138.14,25.78,24.62,36.47,0.04,-272.75,-272.75,-37,553,-894,21.0,3.7,-23.4,21.0,3.9,-23.1,5.73,2.29,-25.8,26.1
2012-12-18 02:06:00,0.0,1.9187,0.0010,-1.00,0.00,88.7,34.2,138.14,25.78,24.62,36.47,0.04,-272.74,-272.75,-37,553,-895,21.0,3.7,-23.4,21.0,3.9,-23.1,5.73,2.34,-25.8,26.1
2012-12-18 02:07:00,0.0,1.9191,0.0009,-1.00,0.00,100.5,35.3,138.14,25.79,24.62,36.46,0.04,-272.75,-272.75,-37,553,-894,21.0,3.7,-23.4,21.0,3.8,-23.1,5.73,2.32,-25.8,26.1
2012-12-18 02:08:00,0.0,1.9194,0.0010,-1.00,0.00,99.4,38.0,138.14,25.80,24.61,36.46,0.04,-272.75,-272.75,-37,553,-894,21.0,3.7,-23.3,21.0,3.9,-23.0,5.73,2.30,-25.8,26.1
2012-12-18 02:09:00,0.0,1.9191,0.0008,-1.00,0.00,97.6,37.7,138.14,25.81,24.62,36.46,0.04,-272.75,-272.75,-37,553,-895,21.0,3.8,-23.3,21.0,3.9,-23.0,5.73,2.37,-25.8,26.1
2012-12-18 02:10:00,0.0,1.9188,0.0009,-1.00,0.00,95.9,38.1,138.14,25.82,24.62,36.47,0.04,-272.75,-272.75,-37,553,-894,21.0,3.8,-23.3,21.0,3.8,-23.1,5.73,2.26,-25.8,26.1
2012-12-18 02:11:00,0.0,1.9195,0.0009,-1.00,0.00,88.1,42.3,138.14,25.83,24.62,36.47,0.04,-272.74,-272.75,-37,553,-894,21.1,3.8,-23.3,21.0,3.8,-23.1,5.73,2.39,-25.8,26.1
2012-12-18 02:12:00,0.0,1.9190,0.0009,-1.00,0.00,94.2,44.4,138.14,25.83,24.62,36.46,0.04,-272.75,-272.75,-37,553,-895,21.1,3.7,-23.4,21.0,3.8,-23.1,5.73,2.25,-25.8,26.2
2012-12-18 02:13:00,0.0,1.9193,0.0008,-1.00,0.00,95.3,39.2,138.14,25.84,24.62,36.47,0.04,-272.75,-272.75,-36,553,-894,21.1,3.7,-23.4,21.0,3.8,-23.1,5.73,2.39,-25.8,26.2
2012-12-18 02:14:00,0.0,1.9193,0.0010,-1.00,0.00,93.3,37.3,138.14,25.85,24.62,36.46,0.04,-272.75,-272.74,-37,553,-895,21.1,3.7,-23.4,21.0,3.8,-23.2,5.73,2.26,-25.8,26.2
2012-12-18 02:15:00,0.0,1.9191,0.0010,-1.00,0.00,104.5,31.9,138.14,25.86,24.62,36.46,0.04,-272.75,-272.75,-37,553,-894,21.1,3.7,-23.4,21.0,3.8,-23.1,5.73,2.37,-25.8,26.2
2012-12-18 02:16:00,0.0,1.9192,0.0009,-1.00,0.00,83.3,36.8,138.14,25.86,24.62,36.46,0.04,-272.75,-272.74,-37,553,-895,21.1,3.7,-23.3,21.0,3.8,-23.1,5.73,2.29,-25.8,26.2
2012-12-18 02:17:00,0.0,1.9194,0.0009,-1.00,0.00,89.9,39.7,138.14,25.87,24.62,36.46,0.04,-272.75,-272.75,-37,553,-895,21.1,3.7,-23.3,21.1,3.9,-23.0,5.73,2.34,-25.8,26.2
2012-12-18 02:18:00,0.0,1.9187,0.0010,-1.00,0.00,92.6,36.8,138.14,25.88,24.62,36.46,0.04,-272.75,-272.75,-37,553,-895,21.1,3.8,-23.3,21.1,3.9,-23.0,5.73,2.33,-25.8,26.2